Location: Staunton
(38.1490°N, 79.0720°W)
Time: 22:43:46
(UTC-05:00)

ISS - Pass Details

Date: 18 November 2017
Orbit: 402 x 407 km, 51.6° (Epoch: 13 December)

Event Time Altitude Azimuth Distance (km) Brightness Sun altitude
Exits shadow 05:37:56 39° 252° (WSW) 615 -3.4 -16.3°
Maximum altitude 05:38:26 43° 224° (SW) 576 -3.4 -16.2°
Drops below altitude 10° 05:41:32 10° 152° (SSE) 1,444 -0.5 -15.6°
Sets 05:43:39 0° 145° (SE) 2,299 0.8 -15.2°
